User: anonymous   Login
Location: Unspecified
(0.0000°N, 0.0000°E)
Time: 12:00:28
(UTC+02:00)
Language:

Envisat - Orbit

View from above orbital plane
View from above orbital plane
View from above satellite
View from above satellite

Ground track
Ground track

The orbit data is extracted from the following two-line orbital elements,

1 27386U 02009A   18108.52045039  .00000012  00000-0  17628-4 0  9994
2 27386  98.1909 145.3710 0001212  76.7365 283.3956 14.37920009844956
Epoch (UTC): 18 April 2018 12:29:26
Eccentricity: 0.0001212
inclination: 98.1909°
perigee height: 764 km
apogee height: 766 km
right ascension of ascending node: 145.3710°
argument of perigee: 76.7365°
revolutions per day: 14.37920009
mean anomaly at epoch: 283.3956°
orbit number at epoch: 84495

The dashed part of the orbit path shows where the satellite is in the earth's shadow,  

DLR